Location: Unspecified
(0.0000°N, 0.0000°E)
Time: 09:26:24
(UTC+00:00)

ATLAS 5 CENTAUR DEB - Pass Details

Date: 17 December 2025
Orbit: 7978 x 35827 km, 19.5° (Epoch: 10 February)

Event Time Altitude Azimuth Distance (km) Brightness Sun altitude
Rises 00:38:34 0° 260° (W) 21,279 ? -64.5°
Reaches altitude 10° 01:05:36 10° 255° (WSW) 23,676 ? -61.2°
Maximum altitude 12:08:09 57° 0° (N) 8,932 ? 66.4°
Drops below altitude 10° 12:54:23 10° 83° (E) 13,545 ? 62.7°
Sets 13:08:42 0° 90° (E) 16,215 ? 60.7°
